This demonstration page uses our WeatherBlox Daily Observations layout. Learn more.

Left ArrowRight Arrow

39.01783, -85.05884

Hourly Observations for August 15, 2017

Temp ( °F °C ) Dew Point ( °F °C ) Humidity (%) Winds ( mph kmh ) Pressure ( in mb ) Visibility ( mi km ) Precip ( " mm )
12:52 am 00:52 Partly Cloudy 70 21.1 68 20 93 93 WSW 5 7 29.86 1011 10 16 0.00 0.00
1:52 am 01:52 Cloudy 69 20.6 69 20.6 100 100 Calm 29.86 1011 10 16 0.00 0.00
2:52 am 02:52 Cloudy 71 21.7 69 20.6 94 94 Calm 29.85 1011 10 16 0.00 0.00
3:52 am 03:52 Cloudy 71 21.7 69 20.6 94 94 NW 3 6 29.85 1011 10 16 0.00 0.00
4:52 am 04:52 Partly Cloudy 70 21.1 69 20.6 97 97 Calm 29.85 1011 10 16 0.00 0.00
5:52 am 05:52 Mostly Cloudy 72 22.2 68 20 87 87 WNW 7 11 29.86 1011 10 16 0.00 0.00
6:52 am 06:52 Mostly Clear 67 19.4 67 19.4 100 100 Calm 29.88 1012 8 13 0.00 0.00
7:52 am 07:52 Mostly Sunny 69 20.6 68 20 96 96 W 3 6 29.89 1012 10 16 0.00 0.00
8:52 am 08:52 Mostly Sunny 75 23.9 69 20.6 82 82 NNW 3 6 29.90 1012 10 16 0.00 0.00
9:52 am 09:52 Mostly Sunny 77 25 70 21.1 79 79 NW 6 9 29.90 1013 10 16 0.00 0.00
10:52 am 10:52 Mostly Sunny 79 26.1 70 21.1 74 74 W 6 9 29.91 1013 10 16 0.00 0.00
11:52 am 11:52 Partly Cloudy 80 26.7 70 21.1 71 71 WNW 7 11 29.92 1013 10 16 0.00 0.00
12:52 pm 12:52 Mostly Cloudy 82 27.8 69 20.6 65 65 VRB 3 6 29.93 1014 10 16 0.00 0.00
1:52 pm 13:52 Mostly Cloudy 85 29.4 70 21.1 61 61 VRB 5 7 29.92 1013 10 16 0.00 0.00
2:52 pm 14:52 Partly Cloudy 85 29.4 69 20.6 59 59 Calm 29.91 1013 10 16 0.00 0.00
3:52 pm 15:52 Partly Cloudy 86 30 70 21.1 59 59 WNW 10 17 29.90 1013 10 16 0.00 0.00
4:52 pm 16:52 Partly Cloudy 86 30 69 20.6 57 57 W 5 7 29.89 1012 10 16 0.00 0.00
5:52 pm 17:52 Mostly Cloudy 86 30 69 20.6 57 57 W 9 15 29.89 1012 10 16 0.00 0.00
6:52 pm 18:52 Mostly Cloudy 85 29.4 68 20 57 57 W 7 11 29.89 1012 10 16 0.00 0.00
7:52 pm 19:52 Mostly Cloudy 82 27.8 70 21.1 67 67 W 5 7 29.89 1012 10 16 0.00 0.00
8:52 pm 20:52 Mostly Cloudy 77 25 70 21.1 79 79 WSW 3 6 29.91 1013 10 16 0.00 0.00
9:52 pm 21:52 Partly Cloudy 76 24.4 70 21.1 82 82 W 3 6 29.92 1013 10 16 0.00 0.00
10:52 pm 22:52 Partly Cloudy 72 22.2 70 21.1 94 94 Calm 29.94 1014 10 16 0.00 0.00
11:52 pm 23:52 Mostly Clear 73 22.8 69 20.6 87 87 Calm 29.95 1014 10 16 0.00 0.00

Powered by AerisWeather